Ely, MN

10:48 AM CDT on August 16, 2017 (GMT -0500)
Ely Municipal

Weather History for KELO - March, 2014

Change the Weather History Date:

Monday, March 24, 2014

  Actual Average Record
Temperature  
Mean Temperature 2 °F -  
Max Temperature 24 °F 37 °F 64 °F (2007)
Min Temperature -20 °F 16 °F -20 °F (2014)
Degree Days  
Heating Degree Days 63    
Moisture  
Dew Point -7 °F    
Average Humidity 63    
Maximum Humidity 85    
Minimum Humidity 34    
Precipitation  
Precipitation 0.00 in - - ()
Sea Level Pressure  
Sea Level Pressure 30.06 in    
Wind  
Wind Speed 5 mph (West)    
Max Wind Speed 17 mph    
Max Gust Speed 26 mph    
Visibility 9 miles    
Events Snow    
Averages and records for this station are not official NWS values.
T = Trace of Precipitation, MM = Missing Value Source: NWS Daily Summary

Daily Weather History Graph

Daily Weather History Graph

Search for Another Location

Airport or City:

Trip Planner

Search our weather history database for the weather conditions in past years. The results will help you decide how hot, cold, wet, or windy it might be!

Date:

Astronomy

Mar. 24, 2014 Rise Set
Actual Time 7:02 AM CDT 7:25 PM CDT
Civil Twilight 6:31 AM CDT 7:56 PM CDT
Nautical Twilight 5:54 AM CDT 8:33 PM CDT
Astronomical Twilight 5:16 AM CDT 9:11 PM CDT
Moon 2:56 AM CDT (3/24) 12:28 PM CDT (3/24)
Length of Visible Light 13h 25m
Length of Day
12h 23m
Last Quarter, 43% of the Moon is Illuminated
Mar 24
Last Quarter
Mar 30
New
Apr 7
First Quarter
Apr 15
Full
Apr 22
Last Quarter

Hourly Weather History & Observations

Time (CDT) Temp. Windchill Dew Point Humidity Pressure Visibility Wind Dir Wind Speed Gust Speed Precip Events Conditions
12:13 AM -11.2 °F - -14.8 °F 84% 30.22 in 10.0 mi Calm Calm - N/A   Clear
12:33 AM -11.2 °F - -16.6 °F 77% 30.22 in 10.0 mi Calm Calm - N/A   Clear
12:52 AM -11.2 °F - -16.6 °F 77% 30.21 in 10.0 mi Calm Calm - N/A   Clear
1:13 AM -13.0 °F - -18.4 °F 77% 30.21 in 10.0 mi Calm Calm - N/A   Clear
1:33 AM -14.8 °F - -18.4 °F 84% 30.21 in 10.0 mi Calm Calm - N/A   Clear
1:52 AM -14.8 °F - -20.2 °F 77% 30.21 in 10.0 mi Calm Calm - N/A   Clear
2:13 AM -14.8 °F - -20.2 °F 77% 30.21 in 10.0 mi Calm Calm - N/A   Clear
2:33 AM -16.6 °F - -20.2 °F 84% 30.20 in 10.0 mi Calm Calm - N/A   Clear
2:53 AM -16.6 °F - -20.2 °F 84% 30.19 in 10.0 mi Calm Calm - N/A   Clear
3:13 AM -18.4 °F -28.9 °F -23.8 °F 76% 30.18 in 10.0 mi SW 3.5 mph - N/A   Clear
3:32 AM -18.4 °F - -23.8 °F 76% 30.18 in 10.0 mi Calm Calm - N/A   Clear
3:53 AM -18.4 °F -28.9 °F -23.8 °F 76% 30.18 in 10.0 mi SW 3.5 mph - N/A   Clear
4:13 AM -16.6 °F - -20.2 °F 84% 30.17 in 10.0 mi Calm Calm - N/A   Clear
4:32 AM -16.6 °F - -22.0 °F 76% 30.17 in 10.0 mi Calm Calm - N/A   Clear
4:53 AM -18.4 °F - -23.8 °F 76% 30.16 in 10.0 mi Calm Calm - N/A   Clear
5:13 AM -18.4 °F - -23.8 °F 76% 30.16 in 10.0 mi Calm Calm - N/A   Clear
5:32 AM -18.4 °F - -23.8 °F 76% 30.15 in 7.0 mi Calm Calm - N/A   Scattered Clouds
5:53 AM -18.4 °F - -23.8 °F 76% 30.15 in 5.0 mi Calm Calm - N/A Snow Light Snow
6:13 AM -20.2 °F - -25.6 °F 76% 30.14 in 10.0 mi Calm Calm - N/A   Clear
6:32 AM -20.2 °F - -25.6 °F 76% 30.14 in 5.0 mi Calm Calm - N/A   Haze
6:53 AM -20.2 °F - -25.6 °F 76% 30.14 in 5.0 mi Calm Calm - N/A Snow Light Snow
7:13 AM -20.2 °F - -27.4 °F 69% 30.14 in 0.8 mi Calm Calm - N/A Snow Light Snow
7:32 AM -18.4 °F - -23.8 °F 76% 30.14 in 1.0 mi Calm Calm - N/A Snow Light Snow
7:53 AM -18.4 °F - -23.8 °F 76% 30.13 in 10.0 mi Calm Calm - N/A Snow Light Snow
8:12 AM -16.6 °F - -20.2 °F 84% 30.12 in 5.0 mi Calm Calm - N/A Snow Light Snow
8:33 AM -4.0 °F -16.3 °F -7.6 °F 85% 30.12 in 10.0 mi SW 5.8 mph - N/A   Scattered Clouds
8:53 AM -0.4 °F -10.4 °F -5.8 °F 78% 30.11 in 10.0 mi SW 4.6 mph - N/A   Scattered Clouds
9:12 AM 1.4 °F -9.9 °F -2.2 °F 85% 30.12 in 10.0 mi WSW 5.8 mph - N/A   Clear
9:33 AM 6.8 °F -4.8 °F -0.4 °F 72% 30.11 in 10.0 mi West 6.9 mph - N/A   Clear
9:53 AM 8.6 °F -5.5 °F -0.4 °F 67% 30.11 in 10.0 mi West 10.4 mph - N/A   Clear
10:12 AM 8.6 °F -4.7 °F -0.4 °F 67% 30.10 in 4.0 mi WSW 9.2 mph 17.3 mph N/A   Haze
10:33 AM 12.2 °F -1.8 °F 1.4 °F 62% 30.09 in 5.0 mi West 11.5 mph - N/A   Haze
10:53 AM 12.2 °F -0.2 °F 1.4 °F 62% 30.09 in 10.0 mi West 9.2 mph 18.4 mph N/A   Clear
11:12 AM 14.0 °F 2.0 °F 1.4 °F 57% 30.08 in 10.0 mi West 9.2 mph 16.1 mph N/A   Clear
11:33 AM 15.8 °F 2.7 °F 1.4 °F 53% 30.07 in 10.0 mi West 11.5 mph 24.2 mph N/A   Clear
11:53 AM 15.8 °F 0.3 °F 1.4 °F 53% 30.07 in 10.0 mi West 16.1 mph 21.9 mph N/A   Clear
12:13 PM 15.8 °F 0.3 °F 1.4 °F 53% 30.06 in 10.0 mi West 16.1 mph 23.0 mph N/A   Clear
12:32 PM 17.6 °F 2.2 °F 1.4 °F 49% 30.05 in 10.0 mi West 17.3 mph 24.2 mph N/A   Clear
12:53 PM 19.4 °F 5.5 °F 1.4 °F 46% 30.04 in 10.0 mi West 15.0 mph 23.0 mph N/A   Clear
1:13 PM 19.4 °F 6.0 °F 1.4 °F 46% 30.04 in 10.0 mi West 13.8 mph 20.7 mph N/A   Scattered Clouds
1:32 PM 19.4 °F 5.0 °F 1.4 °F 46% 30.03 in 10.0 mi West 16.1 mph 24.2 mph N/A   Scattered Clouds
1:53 PM 21.2 °F 7.8 °F -0.4 °F 39% 30.02 in 10.0 mi WNW 15.0 mph 21.9 mph N/A   Scattered Clouds
2:12 PM 21.2 °F 7.3 °F -0.4 °F 39% 30.01 in 10.0 mi West 16.1 mph 21.9 mph N/A   Scattered Clouds
2:33 PM 21.2 °F 8.3 °F -0.4 °F 39% 30.00 in 10.0 mi West 13.8 mph 18.4 mph N/A   Scattered Clouds
2:53 PM 21.2 °F 10.9 °F -0.4 °F 39% 29.99 in 10.0 mi West 9.2 mph 17.3 mph N/A   Clear
3:13 PM 24.8 °F 13.4 °F -0.4 °F 34% 29.97 in 10.0 mi West 12.7 mph 17.3 mph N/A   Scattered Clouds
3:33 PM 21.2 °F 9.5 °F -0.4 °F 39% 29.96 in 10.0 mi West 11.5 mph 24.2 mph N/A   Scattered Clouds
3:53 PM 21.2 °F 9.5 °F 1.4 °F 42% 29.96 in 10.0 mi West 11.5 mph 19.6 mph N/A   Mostly Cloudy
4:13 PM 21.2 °F 10.1 °F 3.2 °F 46% 29.95 in 10.0 mi West 10.4 mph 21.9 mph N/A   Mostly Cloudy
4:33 PM 21.2 °F 7.3 °F 5.0 °F 50% 29.95 in 10.0 mi West 16.1 mph 21.9 mph N/A   Scattered Clouds
4:53 PM 21.2 °F 7.3 °F 3.2 °F 46% 29.94 in 10.0 mi NW 16.1 mph 21.9 mph N/A   Scattered Clouds
5:13 PM 21.2 °F 8.3 °F 3.2 °F 46% 29.94 in 10.0 mi WNW 13.8 mph 19.6 mph N/A   Mostly Cloudy
5:33 PM 21.2 °F 7.3 °F 3.2 °F 46% 29.94 in 10.0 mi WNW 16.1 mph 20.7 mph N/A   Overcast
5:53 PM 19.4 °F 7.9 °F 8.6 °F 63% 29.94 in 7.0 mi West 10.4 mph 20.7 mph N/A Snow Light Snow
6:13 PM 21.2 °F 9.5 °F 6.8 °F 54% 29.92 in 10.0 mi WNW 11.5 mph 16.1 mph N/A   Mostly Cloudy
6:32 PM 19.4 °F 6.0 °F 10.4 °F 68% 29.94 in 5.0 mi NW 13.8 mph 25.3 mph N/A Snow Light Snow
6:53 PM 17.6 °F 2.7 °F 10.4 °F 73% 29.94 in 7.0 mi WNW 16.1 mph 20.7 mph N/A Snow Light Snow
7:13 PM 17.6 °F 5.7 °F 8.6 °F 68% 29.94 in 10.0 mi WNW 10.4 mph 16.1 mph N/A   Overcast
7:32 PM 17.6 °F 2.7 °F 1.4 °F 49% 29.94 in 10.0 mi WNW 16.1 mph 26.5 mph N/A   Mostly Cloudy
7:53 PM 15.8 °F 2.7 °F -0.4 °F 49% 29.94 in 10.0 mi WNW 11.5 mph 19.6 mph N/A   Scattered Clouds
8:13 PM 15.8 °F 1.4 °F 5.0 °F 62% 29.95 in 10.0 mi NW 13.8 mph 20.7 mph N/A   Scattered Clouds
8:33 PM 14.0 °F -1.4 °F 3.2 °F 62% 29.96 in 10.0 mi WNW 15.0 mph 18.4 mph N/A   Clear
8:53 PM 12.2 °F -1.8 °F 1.4 °F 62% 29.96 in 10.0 mi WNW 11.5 mph 25.3 mph N/A   Scattered Clouds
9:12 PM 12.2 °F -3.7 °F 1.4 °F 62% 29.96 in 10.0 mi WNW 15.0 mph 23.0 mph N/A   Scattered Clouds
9:33 PM 10.4 °F -4.8 °F -0.4 °F 62% 29.97 in 10.0 mi WNW 12.7 mph 21.9 mph N/A   Scattered Clouds
9:53 PM 10.4 °F -4.8 °F -4.0 °F 52% 29.97 in 10.0 mi NW 12.7 mph 21.9 mph N/A   Clear
10:12 PM 10.4 °F -5.4 °F -4.0 °F 52% 29.98 in 10.0 mi NW 13.8 mph 19.6 mph N/A   Clear
10:33 PM 8.6 °F -4.7 °F -4.0 °F 57% 29.99 in 10.0 mi NW 9.2 mph 18.4 mph N/A   Clear
10:53 PM 8.6 °F -5.5 °F -4.0 °F 57% 29.99 in 10.0 mi NW 10.4 mph - N/A   Clear
11:12 PM 8.6 °F -7.0 °F -5.8 °F 52% 30.00 in 10.0 mi NW 12.7 mph 25.3 mph N/A   Clear
11:33 PM 6.8 °F -8.6 °F -5.8 °F 56% 30.00 in 10.0 mi NW 11.5 mph 17.3 mph N/A   Clear
11:53 PM 6.8 °F -10.0 °F -7.6 °F 52% 30.00 in 10.0 mi NW 13.8 mph 19.6 mph N/A   Clear